[[{"header":{"parameterUnit":"m.s-1","parameterCategory":1,"la1":30.2991,"la2":30.254,"lo1":-89.0895,"lo2":-89.0444,"dy":0.0017,"dx":0.0017,"nx":28,"ny":28,"refTime":"2025-05-24T21:00:00:Z","depth":0,"parameterNumber":2,"parameterNumberName":"U-component_of_WINDS"},"data":[0,0,0,0,0,0,0,0,0,0,0,0,0,0,0,0,0,0,0,0,0,0,0,0,0,0,0,0,0,0,0,0,0,0,0,0,0,0,0,0,0,0,0,0,0,0,0,0,0,0,0,0,0,0,0,0,0,0,-0.8273,-0.8272,0,-0.816,-0.8159,-0.8157,-0.8086,-0.8085,-0.8085,-0.8084,-0.797,-0.7967,-0.7965,0,0,0,0,0,0,0,0,0,0,0,0,0,-0.8429,-0.8426,-0.8273,-0.8272,-0.827,-0.816,-0.8159,-0.8157,-0.8086,-0.8085,-0.8085,-0.8084,-0.7971,-0.7968,-0.7965,0,0,0,0,0,0,0,0,0,0,0,0,0,-0.8343,-0.8426,-0.8273,-0.8221,-0.8215,-0.816,-0.8158,-0.8157,-0.8086,-0.8085,-0.8085,-0.8084,-0.7972,-0.7968,-0.7964,-0.7952,0,0,-0.7952,-0.795,0,0,0,0,0,0,0,0,-0.8348,-0.8338,-0.823,-0.8225,-0.8218,-0.8136,-0.8171,-0.8088,-0.8086,-0.8135,-0.8084,-0.8084,-0.8026,-0.8017,-0.7998,-0.7947,-0.7942,-0.7952,-0.7949,-0.7947,-0.7946,0,0,0,0,0,0,0,-0.8354,-0.8342,-0.8228,-0.8229,-0.8221,-0.8204,-0.8191,-0.8155,-0.8085,-0.8131,-0.8125,-0.8113,-0.8022,-0.8002,-0.7994,-0.794,-0.7952,-0.7948,-0.7946,-0.7944,-0.7875,-0.7875,0,0,0,0,0,0,-0.8368,-0.8347,-0.8232,-0.8225,-0.8283,-0.8202,-0.8188,-0.8163,-0.8086,-0.8073,-0.8113,-0.811,-0.8009,-0.7999,-0.799,-0.7972,-0.7948,-0.7944,-0.7942,-0.7874,-0.7875,-0.7876,0,0,0,0,0,0,-0.8372,-0.8358,-0.8236,-0.8285,-0.8268,-0.82,-0.8173,-0.8161,-0.814,-0.8073,-0.806,-0.8105,-0.8008,-0.7996,-0.7962,-0.7967,-0.7942,-0.7938,-0.7874,-0.7875,-0.7875,-0.7934,0,0,0,0,0,0,-0.8377,-0.836,-0.8355,-0.8285,-0.8265,-0.821,-0.8173,-0.816,-0.8134,-0.8128,-0.8061,-0.805,-0.8006,-0.7969,-0.7958,-0.7961,-0.7935,-0.7873,-0.7874,-0.7875,-0.7932,-0.7937,-0.7942,0,0,0,0,0,-0.8382,-0.8376,-0.8355,-0.8341,-0.8257,-0.821,-0.8199,-0.8149,-0.8134,-0.8128,-0.8085,-0.8052,-0.7968,-0.7966,-0.7954,-0.7955,-0.7873,-0.7874,-0.7875,-0.7929,-0.7936,-0.7942,0,0,0,0,0,0,-0.8448,-0.8366,-0.8341,-0.8312,-0.8269,-0.8198,-0.8189,-0.8158,-0.8118,-0.8115,-0.8055,-0.8041,-0.8013,-0.798,-0.798,-0.794,-0.7916,-0.7915,-0.7962,-0.7968,-0.7973,-0.7981,-0.7932,0,0,0,0,0,-0.8459,-0.8428,-0.8358,-0.8339,-0.8318,-0.8258,-0.8236,-0.8201,-0.8154,-0.8135,-0.8089,-0.8046,-0.8009,-0.7987,-0.7949,-0.7927,-0.7912,-0.7922,-0.7927,-0.7931,-0.7931,-0.7917,-0.7921,-0.788,-0.788,-0.788,0,0,-0.8482,-0.8433,-0.8417,-0.8351,-0.8313,-0.8282,-0.8243,-0.8212,-0.8189,-0.8131,-0.8096,-0.8061,-0.8008,-0.7981,-0.7966,-0.7952,-0.7939,-0.7933,-0.7937,-0.7934,-0.7919,-0.7923,-0.7926,-0.7881,-0.788,-0.788,0,0,-0.8507,-0.8467,-0.8447,-0.841,-0.8353,-0.8313,-0.8309,-0.8243,-0.8217,-0.8182,-0.8138,-0.811,-0.8048,-0.8013,-0.7987,-0.8,-0.7968,-0.7989,-0.8015,-0.8003,-0.8006,-0.8008,-0.8014,-0.8016,-0.7989,-0.7989,-0.7989,0,-0.8543,-0.8494,-0.8441,-0.8412,-0.8385,-0.833,-0.831,-0.8277,-0.8212,-0.8195,-0.818,-0.8103,-0.8063,-0.8026,-0.803,-0.801,-0.8003,-0.7996,-0.801,-0.8012,-0.8013,-0.8018,-0.802,-0.7992,-0.7992,-0.7992,-0.7991,0,-0.8541,-0.8508,-0.8499,-0.8436,-0.8408,-0.8384,-0.8327,-0.8305,-0.8273,-0.8235,-0.82,-0.8151,-0.8103,-0.8092,-0.806,-0.8051,-0.8044,-0.8021,-0.7996,-0.8021,-0.8024,-0.8025,-0.7997,-0.7996,-0.7995,-0.7994,0,0,-0.8604,-0.8513,-0.851,-0.8482,-0.8416,-0.839,-0.8364,-0.8317,-0.8299,-0.8256,-0.8233,-0.8183,-0.8161,-0.8131,-0.8095,-0.8084,-0.8098,-0.8062,-0.8059,-0.8071,-0.8086,-0.8104,-0.8107,-0.8077,-0.8077,-0.8077,-0.809,0,-0.862,-0.857,-0.8521,-0.8489,-0.8458,-0.8406,-0.8384,-0.8341,-0.8305,-0.8275,-0.8235,-0.82,-0.8173,-0.8155,-0.8142,-0.8099,-0.8101,-0.8098,-0.8056,-0.8055,-0.8071,-0.8108,-0.8127,-0.8142,-0.8091,-0.8091,-0.8091,0,-0.8632,-0.8591,-0.8556,-0.8493,-0.8478,-0.8459,-0.8412,-0.8383,-0.8334,-0.8309,-0.8276,-0.8238,-0.8209,-0.8188,-0.8147,-0.8147,-0.8127,-0.8103,-0.8103,-0.8097,-0.8075,-0.8104,-0.8146,-0.8148,-0.8092,-0.8092,-0.8092,0,-0.8683,-0.8619,-0.8589,-0.8566,-0.8492,-0.848,-0.8449,-0.8399,-0.8374,-0.8333,-0.8317,-0.8274,-0.825,-0.8218,-0.817,-0.8159,-0.8135,-0.8109,-0.8113,-0.8115,-0.811,-0.8111,-0.815,-0.8097,-0.8097,-0.8097,-0.8097,0,-0.8706,-0.8687,-0.8611,-0.8593,-0.857,-0.8514,-0.8493,-0.8457,-0.8414,-0.8388,-0.8341,-0.8319,-0.8256,-0.8226,-0.8189,-0.8161,-0.8151,-0.813,-0.812,-0.8134,-0.8137,-0.812,-0.8118,-0.8098,-0.8098,-0.8098,-0.8097,0,-0.8759,-0.8708,-0.8672,-0.8605,-0.8588,-0.8574,-0.8516,-0.8497,-0.8458,-0.8427,-0.8416,-0.8356,-0.8318,-0.8267,-0.8214,-0.8188,-0.8166,-0.8151,-0.8183,-0.8177,-0.8184,-0.8184,-0.8214,-0.8215,-0.8162,-0.8162,-0.8163,0,-0.8778,-0.8762,-0.8692,-0.8672,-0.8642,-0.8609,-0.8583,-0.8528,-0.8504,-0.8447,-0.8435,-0.8394,-0.8358,-0.83,-0.8252,-0.8211,-0.8195,-0.8208,-0.8188,-0.8203,-0.8195,-0.8197,-0.8196,-0.8213,-0.8213,-0.8214,-0.8215,0,-0.8817,-0.8792,-0.8756,-0.8711,-0.8682,-0.8644,-0.8605,-0.8591,-0.8527,-0.8502,-0.8463,-0.8435,-0.8381,-0.8341,-0.8294,-0.8262,-0.8228,-0.8221,-0.822,-0.8234,-0.8254,-0.8244,-0.8196,-0.8221,-0.822,-0.822,-0.8219,-0.8219,-0.8853,-0.8836,-0.8785,-0.8747,-0.8711,-0.8675,-0.8654,-0.8613,-0.8579,-0.853,-0.8499,-0.8462,-0.8414,-0.8347,-0.8317,-0.8288,-0.8274,-0.8272,-0.8272,-0.8272,-0.8277,-0.8259,-0.8279,-0.8278,-0.8278,-0.8278,-0.8278,0,-0.889,-0.8854,-0.8819,-0.8765,-0.8736,-0.8705,-0.866,-0.8638,-0.8605,-0.8563,-0.8528,-0.8484,-0.8445,-0.8394,-0.8351,-0.8337,-0.8321,-0.8328,-0.8329,-0.8322,-0.8292,-0.8297,-0.8342,-0.8342,-0.8342,-0.8342,-0.8342,-0.8342,-0.8905,-0.8875,-0.8845,-0.8797,-0.8762,-0.8724,-0.8701,-0.8668,-0.8634,-0.8586,-0.8553,-0.852,-0.8474,-0.8428,-0.8391,-0.8377,-0.8364,-0.8376,-0.8358,-0.833,-0.8324,-0.8319,-0.8324,-0.8374,-0.8374,-0.8391,-0.8391,-0.8391]},{"header":{"parameterUnit":"m.s-1","parameterCategory":1,"la1":30.2991,"la2":30.254,"lo1":-89.0895,"lo2":-89.0444,"dy":0.0017,"dx":0.0017,"nx":28,"ny":28,"refTime":"2025-05-24T21:00:00:Z","depth":0,"parameterNumber":3,"parameterNumberName":"V-component_of_WINDS"},"data":[0,0,0,0,0,0,0,0,0,0,0,0,0,0,0,0,0,0,0,0,0,0,0,0,0,0,0,0,0,0,0,0,0,0,0,0,0,0,0,0,0,0,0,0,0,0,0,0,0,0,0,0,0,0,0,0,0,0,4.3128,4.3128,0,4.3103,4.3103,4.3103,4.3045,4.3044,4.3043,4.3042,4.3016,4.3017,4.3017,0,0,0,0,0,0,0,0,0,0,0,0,0,4.3128,4.3128,4.3128,4.3128,4.3128,4.3103,4.3103,4.3103,4.3045,4.3044,4.3043,4.3041,4.3016,4.3017,4.3017,0,0,0,0,0,0,0,0,0,0,0,0,0,4.3118,4.3128,4.3129,4.3096,4.3093,4.3103,4.3103,4.3103,4.3046,4.3044,4.3042,4.3041,4.3016,4.3017,4.3017,4.3057,0,0,4.3019,4.302,0,0,0,0,0,0,0,0,4.3119,4.3118,4.3101,4.3099,4.3095,4.3076,4.3093,4.3087,4.3046,4.3064,4.3042,4.304,4.3038,4.3036,4.3035,4.3056,4.3055,4.3019,4.302,4.302,4.302,0,0,0,0,0,0,0,4.312,4.3119,4.3118,4.3101,4.3097,4.3083,4.308,4.3092,4.3061,4.3062,4.3058,4.3056,4.3035,4.3035,4.3034,4.3054,4.3019,4.302,4.302,4.3021,4.3107,4.3109,0,0,0,0,0,0,4.3125,4.312,4.3119,4.3118,4.3103,4.3085,4.3081,4.3084,4.3061,4.3055,4.3057,4.3053,4.3035,4.3034,4.3033,4.3079,4.302,4.3021,4.3021,4.3105,4.3107,4.3109,0,0,0,0,0,0,4.3125,4.3125,4.312,4.3118,4.3116,4.3087,4.309,4.3084,4.3083,4.3057,4.3051,4.3062,4.3033,4.3032,4.3052,4.3077,4.3021,4.3022,4.3103,4.3106,4.3108,4.317,0,0,0,0,0,0,4.3125,4.3126,4.314,4.3118,4.3116,4.3139,4.3092,4.3085,4.3085,4.3079,4.306,4.3055,4.3032,4.3051,4.3052,4.3077,4.3022,4.31,4.3104,4.3108,4.3166,4.3175,4.3183,0,0,0,0,0,4.3125,4.3158,4.3141,4.3141,4.3134,4.314,4.3139,4.3111,4.3087,4.3102,4.3085,4.3056,4.3074,4.3054,4.3055,4.308,4.3099,4.3103,4.3107,4.3162,4.3173,4.3183,0,0,0,0,0,0,4.3184,4.3155,4.3135,4.3162,4.3154,4.3131,4.3148,4.3124,4.3123,4.3117,4.3083,4.3079,4.3104,4.3093,4.3071,4.3118,4.3082,4.3087,4.3123,4.3134,4.3142,4.3144,4.3023,0,0,0,0,0,4.32,4.3207,4.3182,4.3208,4.3205,4.3178,4.3179,4.3159,4.3149,4.3145,4.313,4.3122,4.3126,4.3129,4.3131,4.3164,4.316,4.3182,4.3191,4.3198,4.3202,4.322,4.323,4.3124,4.3124,4.3123,0,0,4.3233,4.3218,4.3225,4.3219,4.3211,4.322,4.3175,4.3186,4.3193,4.3147,4.3165,4.3153,4.3142,4.3169,4.318,4.3161,4.3231,4.3203,4.3209,4.321,4.3226,4.3236,4.3245,4.3127,4.3126,4.3126,0,0,4.3298,4.3287,4.3308,4.3301,4.3288,4.327,4.3275,4.3256,4.3246,4.3263,4.3229,4.3237,4.3244,4.3238,4.3236,4.33,4.3274,4.3302,4.3346,4.3364,4.3372,4.3379,4.3403,4.3412,4.3306,4.3306,4.3306,0,4.3341,4.3353,4.3322,4.3336,4.3335,4.3294,4.3316,4.331,4.3299,4.33,4.3279,4.3288,4.3277,4.3303,4.3319,4.3318,4.3323,4.3304,4.3373,4.338,4.3387,4.3409,4.3418,4.331,4.3309,4.3309,4.3309,0,4.3406,4.3416,4.3434,4.3425,4.3426,4.3444,4.3416,4.3421,4.3401,4.3385,4.3403,4.339,4.3389,4.3393,4.3373,4.3416,4.3405,4.3379,4.3343,4.3401,4.3421,4.3429,4.3315,4.3314,4.3313,4.3312,0,0,4.3507,4.3481,4.3489,4.3485,4.3468,4.3475,4.3491,4.3491,4.3496,4.349,4.3503,4.3511,4.3488,4.3485,4.3464,4.348,4.3533,4.3452,4.3451,4.3468,4.3581,4.36,4.3611,4.3515,4.3517,4.3518,4.3582,0,4.3569,4.3595,4.3569,4.36,4.3609,4.3571,4.3585,4.3577,4.3563,4.3568,4.3553,4.3559,4.3527,4.3526,4.3539,4.3524,4.3555,4.3518,4.3528,4.3529,4.3533,4.3621,4.3642,4.3703,4.3589,4.3591,4.3592,0,4.3644,4.3642,4.3675,4.3658,4.366,4.3674,4.3672,4.3677,4.3668,4.3656,4.3654,4.3629,4.3645,4.3609,4.363,4.3606,4.3609,4.3602,4.3603,4.3603,4.3564,4.3625,4.3721,4.3731,4.3604,4.3603,4.3602,0,4.3716,4.3721,4.3742,4.3739,4.3719,4.373,4.3722,4.3711,4.3712,4.371,4.3711,4.3711,4.3712,4.3713,4.3688,4.3664,4.3713,4.3675,4.3705,4.3706,4.3717,4.3717,4.3816,4.3718,4.3718,4.3718,4.3717,0,4.3788,4.381,4.3774,4.3787,4.381,4.378,4.3804,4.3792,4.3783,4.3793,4.376,4.377,4.3737,4.3744,4.3726,4.3747,4.3747,4.3739,4.3734,4.3742,4.3743,4.3744,4.3739,4.372,4.3719,4.3719,4.3719,0,4.3872,4.3848,4.3869,4.3848,4.3844,4.3862,4.3845,4.3856,4.384,4.3854,4.3855,4.383,4.3837,4.3813,4.3815,4.3803,4.3834,4.3822,4.3838,4.3834,4.3866,4.3863,4.3969,4.3982,4.3875,4.3876,4.3877,0,4.392,4.3936,4.3917,4.3922,4.3916,4.3923,4.3925,4.3896,4.3899,4.389,4.3903,4.3907,4.3909,4.3922,4.3904,4.3906,4.3894,4.3931,4.3894,4.3903,4.3896,4.3895,4.3897,4.3939,4.394,4.3941,4.3942,0,4.4008,4.3996,4.3999,4.3999,4.4002,4.4,4.3997,4.4002,4.3971,4.3976,4.3983,4.3985,4.3988,4.3993,4.3991,4.3984,4.3959,4.3954,4.3961,4.397,4.3979,4.3976,4.386,4.3952,4.3951,4.395,4.395,4.3949,4.4076,4.4088,4.4078,4.4083,4.4077,4.4075,4.4085,4.407,4.4075,4.4075,4.4058,4.4068,4.4059,4.4055,4.405,4.4058,4.4041,4.4051,4.4054,4.4057,4.4063,4.3978,4.4058,4.4058,4.4057,4.4057,4.4057,0,4.4163,4.4154,4.4159,4.4155,4.416,4.4135,4.413,4.4135,4.4145,4.4139,4.4141,4.415,4.4154,4.4137,4.414,4.415,4.4139,4.4152,4.4151,4.415,4.4078,4.4072,4.4161,4.4161,4.4161,4.4161,4.4161,4.4161,4.4209,4.4229,4.4216,4.4234,4.4225,4.4235,4.4234,4.4232,4.4227,4.4238,4.4242,4.423,4.422,4.4222,4.4226,4.422,4.4223,4.4241,4.4232,4.4165,4.4155,4.4145,4.4139,4.4242,4.4242,4.4304,4.4304,4.4305]}]]